Year,Month,Day,Hour,Minute,Value (Times are PST for windspeed in km/hr)
2008,08,30,00,00,8.50
2008,08,30,00,01,8.70
2008,08,30,00,02,7.30
2008,08,30,00,03,11.20
2008,08,30,00,04,12.90
2008,08,30,00,05,10.00
2008,08,30,00,06,10.30
2008,08,30,00,07,9.00
2008,08,30,00,08,10.80
2008,08,30,00,09,9.20
2008,08,30,00,10,12.80
2008,08,30,00,11,8.70
2008,08,30,00,12,9.40
2008,08,30,00,13,10.50
2008,08,30,00,14,12.30
2008,08,30,00,15,9.00
2008,08,30,00,16,12.80
2008,08,30,00,17,10.70
2008,08,30,00,18,6.40
2008,08,30,00,19,7.60
2008,08,30,00,20,11.90
2008,08,30,00,21,10.60
2008,08,30,00,22,13.80
2008,08,30,00,23,12.30
2008,08,30,00,24,9.00
2008,08,30,00,25,11.70
2008,08,30,00,26,11.00
2008,08,30,00,27,11.80
2008,08,30,00,28,14.60
2008,08,30,00,29,12.60
2008,08,30,00,30,10.50
2008,08,30,00,31,10.20
2008,08,30,00,32,11.40
2008,08,30,00,33,9.80
2008,08,30,00,34,8.10
2008,08,30,00,35,13.00
2008,08,30,00,36,10.00
2008,08,30,00,37,9.60
2008,08,30,00,38,9.90
2008,08,30,00,39,10.90
2008,08,30,00,40,10.40
2008,08,30,00,41,10.10
2008,08,30,00,42,11.60
2008,08,30,00,43,13.50
2008,08,30,00,44,9.60
2008,08,30,00,45,12.80
2008,08,30,00,46,9.00
2008,08,30,00,47,11.70
2008,08,30,00,48,11.30
2008,08,30,00,49,11.50
2008,08,30,00,50,11.00
2008,08,30,00,51,8.60
2008,08,30,00,52,11.70
2008,08,30,00,53,10.80
2008,08,30,00,54,8.20
2008,08,30,00,55,10.00
2008,08,30,00,56,9.80
2008,08,30,00,57,9.00
2008,08,30,00,58,9.70
2008,08,30,00,59,9.20
2008,08,30,01,00,8.10
2008,08,30,01,01,9.70
2008,08,30,01,02,7.20
2008,08,30,01,03,12.50
2008,08,30,01,04,10.60
2008,08,30,01,05,9.60
2008,08,30,01,06,7.00
2008,08,30,01,07,9.70
2008,08,30,01,08,9.70
2008,08,30,01,09,11.90
2008,08,30,01,10,8.90
2008,08,30,01,11,13.30
2008,08,30,01,12,8.90
2008,08,30,01,13,8.30
2008,08,30,01,14,8.30
2008,08,30,01,15,6.30
2008,08,30,01,16,7.40
2008,08,30,01,17,5.40
2008,08,30,01,18,7.80
2008,08,30,01,19,7.60
2008,08,30,01,20,9.40
2008,08,30,01,21,8.60
2008,08,30,01,22,9.50
2008,08,30,01,23,8.50
2008,08,30,01,24,8.70
2008,08,30,01,25,6.60
2008,08,30,01,26,12.10
2008,08,30,01,27,7.30
2008,08,30,01,28,11.30
2008,08,30,01,29,11.70
2008,08,30,01,30,7.70
2008,08,30,01,31,7.90
2008,08,30,01,32,6.00
2008,08,30,01,33,7.00
2008,08,30,01,34,5.20
2008,08,30,01,35,8.90
2008,08,30,01,36,6.40
2008,08,30,01,37,9.80
2008,08,30,01,38,6.90
2008,08,30,01,39,7.50
2008,08,30,01,40,6.90
2008,08,30,01,41,9.50
2008,08,30,01,42,6.30
2008,08,30,01,43,6.00
2008,08,30,01,44,7.20
2008,08,30,01,45,6.50
2008,08,30,01,46,7.90
2008,08,30,01,47,7.20
2008,08,30,01,48,6.30
2008,08,30,01,49,6.20
2008,08,30,01,50,5.50
2008,08,30,01,51,7.80
2008,08,30,01,52,9.10
2008,08,30,01,53,7.90
2008,08,30,01,54,7.30
2008,08,30,01,55,4.80
2008,08,30,01,56,5.90
2008,08,30,01,57,4.70
2008,08,30,01,58,4.50
2008,08,30,01,59,7.40
2008,08,30,02,00,5.50
2008,08,30,02,01,8.10
2008,08,30,02,02,5.70
2008,08,30,02,03,7.50
2008,08,30,02,04,6.30
2008,08,30,02,05,5.80
2008,08,30,02,06,4.80
2008,08,30,02,07,6.40
2008,08,30,02,08,5.60
2008,08,30,02,09,7.70
2008,08,30,02,10,6.30
2008,08,30,02,11,6.20
2008,08,30,02,12,7.70
2008,08,30,02,13,7.90
2008,08,30,02,14,7.40
2008,08,30,02,15,7.90
2008,08,30,02,16,6.60
2008,08,30,02,17,7.70
2008,08,30,02,18,6.80
2008,08,30,02,19,7.30
2008,08,30,02,20,8.30
2008,08,30,02,21,6.00
2008,08,30,02,22,7.20
2008,08,30,02,23,6.10
2008,08,30,02,24,7.80
2008,08,30,02,25,7.50
2008,08,30,02,26,7.10
2008,08,30,02,27,6.80
2008,08,30,02,28,6.10
2008,08,30,02,29,7.60
2008,08,30,02,30,5.30
2008,08,30,02,31,8.50
2008,08,30,02,32,6.40
2008,08,30,02,33,6.50
2008,08,30,02,34,5.90
2008,08,30,02,35,7.60
2008,08,30,02,36,5.60
2008,08,30,02,37,8.10
2008,08,30,02,38,7.10
2008,08,30,02,39,5.70
2008,08,30,02,40,9.70
2008,08,30,02,41,8.00
2008,08,30,02,42,5.60
2008,08,30,02,43,6.40
2008,08,30,02,44,4.90
2008,08,30,02,45,5.80
2008,08,30,02,46,4.20
2008,08,30,02,47,5.10
2008,08,30,02,48,7.80
2008,08,30,02,49,6.60
2008,08,30,02,50,4.80
2008,08,30,02,51,4.70
2008,08,30,02,52,5.70
2008,08,30,02,53,6.00
2008,08,30,02,54,6.00
2008,08,30,02,55,6.80
2008,08,30,02,56,8.50
2008,08,30,02,57,6.00
2008,08,30,02,58,5.80
2008,08,30,02,59,8.00
2008,08,30,03,00,7.70
2008,08,30,03,01,6.80
2008,08,30,03,02,6.90
2008,08,30,03,03,5.80
2008,08,30,03,04,5.70
2008,08,30,03,05,7.30
2008,08,30,03,06,6.40
2008,08,30,03,07,6.60
2008,08,30,03,08,7.10
2008,08,30,03,09,6.00
2008,08,30,03,10,7.10
2008,08,30,03,11,5.60
2008,08,30,03,12,8.20
2008,08,30,03,13,6.10
2008,08,30,03,14,6.80
2008,08,30,03,15,6.30
2008,08,30,03,16,6.80
2008,08,30,03,17,6.70
2008,08,30,03,18,6.70
2008,08,30,03,19,6.90
2008,08,30,03,20,7.50
2008,08,30,03,21,7.80
2008,08,30,03,22,5.10
2008,08,30,03,23,7.00
2008,08,30,03,24,5.90
2008,08,30,03,25,6.70
2008,08,30,03,26,6.70
2008,08,30,03,27,6.30
2008,08,30,03,28,5.90
2008,08,30,03,29,6.30
2008,08,30,03,30,4.80
2008,08,30,03,31,4.10
2008,08,30,03,32,5.20
2008,08,30,03,33,3.90
2008,08,30,03,34,6.60
2008,08,30,03,35,8.90
2008,08,30,03,36,8.30
2008,08,30,03,37,7.10
2008,08,30,03,38,5.50
2008,08,30,03,39,5.30
2008,08,30,03,40,4.00
2008,08,30,03,41,5.00
2008,08,30,03,42,4.40
2008,08,30,03,43,4.60
2008,08,30,03,44,5.70
2008,08,30,03,45,5.90
2008,08,30,03,46,3.90
2008,08,30,03,47,4.50
2008,08,30,03,48,5.60
2008,08,30,03,49,5.40
2008,08,30,03,50,7.20
2008,08,30,03,51,5.40
2008,08,30,03,52,6.40
2008,08,30,03,53,6.30
2008,08,30,03,54,5.50
2008,08,30,03,55,7.30
2008,08,30,03,56,6.10
2008,08,30,03,57,4.60
2008,08,30,03,58,7.20
2008,08,30,03,59,6.10
2008,08,30,04,00,7.50
2008,08,30,04,01,7.40
2008,08,30,04,02,6.20
2008,08,30,04,03,7.50
2008,08,30,04,04,6.60
2008,08,30,04,05,7.90
2008,08,30,04,06,7.60
2008,08,30,04,07,6.90
2008,08,30,04,08,6.90
2008,08,30,04,09,8.20
2008,08,30,04,10,7.10
2008,08,30,04,11,8.30
2008,08,30,04,12,6.40
2008,08,30,04,13,7.50
2008,08,30,04,14,5.50
2008,08,30,04,15,6.80
2008,08,30,04,16,7.00
2008,08,30,04,17,5.60
2008,08,30,04,18,6.10
2008,08,30,04,19,6.80
2008,08,30,04,20,7.60
2008,08,30,04,21,6.30
2008,08,30,04,22,7.00
2008,08,30,04,23,7.30
2008,08,30,04,24,9.30
2008,08,30,04,25,7.40
2008,08,30,04,26,5.10
2008,08,30,04,27,7.70
2008,08,30,04,28,6.70
2008,08,30,04,29,8.20
2008,08,30,04,30,8.20
2008,08,30,04,31,7.30
2008,08,30,04,32,6.60
2008,08,30,04,33,7.80
2008,08,30,04,34,7.60
2008,08,30,04,35,8.00
2008,08,30,04,36,7.40
2008,08,30,04,37,8.10
2008,08,30,04,38,7.00
2008,08,30,04,39,6.90
2008,08,30,04,40,6.90
2008,08,30,04,41,6.40
2008,08,30,04,42,6.50
2008,08,30,04,43,6.10
2008,08,30,04,44,6.20
2008,08,30,04,45,7.40
2008,08,30,04,46,6.80
2008,08,30,04,47,6.80
2008,08,30,04,48,6.20
2008,08,30,04,49,7.10
2008,08,30,04,50,6.20
2008,08,30,04,51,6.20
2008,08,30,04,52,5.80
2008,08,30,04,53,6.80
2008,08,30,04,54,6.20
2008,08,30,04,55,5.30
2008,08,30,04,56,6.30
2008,08,30,04,57,7.60
2008,08,30,04,58,6.70
2008,08,30,04,59,7.60
2008,08,30,05,00,7.20
2008,08,30,05,01,6.30
2008,08,30,05,02,6.20
2008,08,30,05,03,7.10
2008,08,30,05,04,7.00
2008,08,30,05,05,5.10
2008,08,30,05,06,7.00
2008,08,30,05,07,6.40
2008,08,30,05,08,5.30
2008,08,30,05,09,5.30
2008,08,30,05,10,7.20
2008,08,30,05,11,7.20
2008,08,30,05,12,5.60
2008,08,30,05,13,7.20
2008,08,30,05,14,5.40
2008,08,30,05,15,6.20
2008,08,30,05,16,6.80
2008,08,30,05,17,5.90
2008,08,30,05,18,5.20
2008,08,30,05,19,6.40
2008,08,30,05,20,5.30
2008,08,30,05,21,6.50
2008,08,30,05,22,5.90
2008,08,30,05,23,5.10
2008,08,30,05,24,3.80
2008,08,30,05,25,4.20
2008,08,30,05,26,6.50
2008,08,30,05,27,6.30
2008,08,30,05,28,8.70
2008,08,30,05,29,5.30
2008,08,30,05,30,3.90
2008,08,30,05,31,5.40
2008,08,30,05,32,5.60
2008,08,30,05,33,6.50
2008,08,30,05,34,5.80
2008,08,30,05,35,5.00
2008,08,30,05,36,5.30
2008,08,30,05,37,5.40
2008,08,30,05,38,7.10
2008,08,30,05,39,7.00
2008,08,30,05,40,6.50
2008,08,30,05,41,5.10
2008,08,30,05,42,4.10
2008,08,30,05,43,6.30
2008,08,30,05,44,3.60
2008,08,30,05,45,5.60
2008,08,30,05,46,4.30
2008,08,30,05,47,6.20
2008,08,30,05,48,4.40
2008,08,30,05,49,4.30
2008,08,30,05,50,4.80
2008,08,30,05,51,5.40
2008,08,30,05,52,4.60
2008,08,30,05,53,6.60
2008,08,30,05,54,5.30
2008,08,30,05,55,5.40
2008,08,30,05,56,6.80
2008,08,30,05,57,6.40
2008,08,30,05,58,5.80
2008,08,30,05,59,5.80
2008,08,30,06,00,4.40
2008,08,30,06,01,6.00
2008,08,30,06,02,5.20
2008,08,30,06,03,2.60
2008,08,30,06,04,3.50
2008,08,30,06,05,5.40
2008,08,30,06,06,4.80
2008,08,30,06,07,4.60
2008,08,30,06,08,3.80
2008,08,30,06,09,4.30
2008,08,30,06,10,4.50
2008,08,30,06,11,6.00
2008,08,30,06,12,5.20
2008,08,30,06,13,5.10
2008,08,30,06,14,5.30
2008,08,30,06,15,5.10
2008,08,30,06,16,3.90
2008,08,30,06,17,4.70
2008,08,30,06,18,5.90
2008,08,30,06,19,2.60
2008,08,30,06,20,3.30
2008,08,30,06,21,4.60
2008,08,30,06,22,2.00
2008,08,30,06,23,2.30
2008,08,30,06,24,4.10
2008,08,30,06,25,5.60
2008,08,30,06,26,5.10
2008,08,30,06,27,3.80
2008,08,30,06,28,2.60
2008,08,30,06,29,3.80
2008,08,30,06,30,0.60
2008,08,30,06,31,3.10
2008,08,30,06,32,3.00
2008,08,30,06,33,3.10
2008,08,30,06,34,3.70
2008,08,30,06,35,3.90
2008,08,30,06,36,1.30
2008,08,30,06,37,2.70
2008,08,30,06,38,4.10
2008,08,30,06,39,4.10
2008,08,30,06,40,4.10
2008,08,30,06,41,2.70
2008,08,30,06,42,3.20
2008,08,30,06,43,4.60
2008,08,30,06,44,4.10
2008,08,30,06,45,3.30
2008,08,30,06,46,2.70
2008,08,30,06,47,2.90
2008,08,30,06,48,5.10
2008,08,30,06,49,5.60
2008,08,30,06,50,3.50
2008,08,30,06,51,5.60
2008,08,30,06,52,4.50
2008,08,30,06,53,4.80
2008,08,30,06,54,1.20
2008,08,30,06,55,1.80
2008,08,30,06,56,2.20
2008,08,30,06,57,5.50
2008,08,30,06,58,4.00
2008,08,30,06,59,3.60
2008,08,30,07,00,3.80
2008,08,30,07,01,2.70
2008,08,30,07,02,4.70
2008,08,30,07,03,4.60
2008,08,30,07,04,4.60
2008,08,30,07,05,2.50
2008,08,30,07,06,4.30
2008,08,30,07,07,1.90
2008,08,30,07,08,5.70
2008,08,30,07,09,4.70
2008,08,30,07,10,3.40
2008,08,30,07,11,2.90
2008,08,30,07,12,3.20
2008,08,30,07,13,4.60
2008,08,30,07,14,5.80
2008,08,30,07,15,4.10
2008,08,30,07,16,5.10
2008,08,30,07,17,6.00
2008,08,30,07,18,5.70
2008,08,30,07,19,5.50
2008,08,30,07,20,5.50
2008,08,30,07,21,5.70
2008,08,30,07,22,4.40
2008,08,30,07,23,4.30
2008,08,30,07,24,2.80
2008,08,30,07,25,3.20
2008,08,30,07,26,4.30
2008,08,30,07,27,3.50
2008,08,30,07,28,1.00
2008,08,30,07,29,4.20
2008,08,30,07,30,3.50
2008,08,30,07,31,3.50
2008,08,30,07,32,4.20
2008,08,30,07,33,4.80
2008,08,30,07,34,2.80
2008,08,30,07,35,4.00
2008,08,30,07,36,4.30
2008,08,30,07,37,4.30
2008,08,30,07,38,2.30
2008,08,30,07,39,1.50
2008,08,30,07,40,2.10
2008,08,30,07,41,4.50
2008,08,30,07,42,2.70
2008,08,30,07,43,0.80
2008,08,30,07,44,3.90
2008,08,30,07,45,3.00
2008,08,30,07,46,2.10
2008,08,30,07,47,3.00
2008,08,30,07,48,1.20
2008,08,30,07,49,1.20
2008,08,30,07,50,2.00
2008,08,30,07,51,2.80
2008,08,30,07,52,3.00
2008,08,30,07,53,2.10
2008,08,30,07,54,2.80
2008,08,30,07,55,1.50
2008,08,30,07,56,2.10
2008,08,30,07,57,0.60
2008,08,30,07,58,1.70
2008,08,30,07,59,1.40
2008,08,30,08,00,0.10
2008,08,30,08,01,0.00
2008,08,30,08,02,1.60
2008,08,30,08,03,3.90
2008,08,30,08,04,1.70
2008,08,30,08,05,0.30
2008,08,30,08,06,0.90
2008,08,30,08,07,0.10
2008,08,30,08,08,2.30
2008,08,30,08,09,2.40
2008,08,30,08,10,1.60
2008,08,30,08,11,0.30
2008,08,30,08,12,0.90
2008,08,30,08,13,1.00
2008,08,30,08,14,0.90
2008,08,30,08,15,2.20
2008,08,30,08,16,3.40
2008,08,30,08,17,2.10
2008,08,30,08,18,4.00
2008,08,30,08,19,2.90
2008,08,30,08,20,1.50
2008,08,30,08,21,0.80
2008,08,30,08,22,2.90
2008,08,30,08,23,1.80
2008,08,30,08,24,1.80
2008,08,30,08,25,2.40
2008,08,30,08,26,2.40
2008,08,30,08,27,0.10
2008,08,30,08,28,0.90
2008,08,30,08,29,4.40
2008,08,30,08,30,3.90
2008,08,30,08,31,2.10
2008,08,30,08,32,0.80
2008,08,30,08,33,2.10
2008,08,30,08,34,3.20
2008,08,30,08,35,4.70
2008,08,30,08,36,5.10
2008,08,30,08,37,2.80
2008,08,30,08,38,0.10
2008,08,30,08,39,1.20
2008,08,30,08,40,0.00
2008,08,30,08,41,1.50
2008,08,30,08,42,0.70
2008,08,30,08,43,0.90
2008,08,30,08,44,3.40
2008,08,30,08,45,4.30
2008,08,30,08,46,4.30
2008,08,30,08,47,4.60
2008,08,30,08,48,6.10
2008,08,30,08,49,5.80
2008,08,30,08,50,4.70
2008,08,30,08,51,4.80
2008,08,30,08,52,3.40
2008,08,30,08,53,3.90
2008,08,30,08,54,5.90
2008,08,30,08,55,5.80
2008,08,30,08,56,4.80
2008,08,30,08,57,2.80
2008,08,30,08,58,3.90
2008,08,30,08,59,1.40
2008,08,30,09,00,2.40
2008,08,30,09,01,4.60
2008,08,30,09,02,1.70
2008,08,30,09,03,3.10
2008,08,30,09,04,5.90
2008,08,30,09,05,4.50
2008,08,30,09,06,3.40
2008,08,30,09,07,4.50
2008,08,30,09,08,1.90
2008,08,30,09,09,4.00
2008,08,30,09,10,3.80
2008,08,30,09,11,4.60
2008,08,30,09,12,2.50
2008,08,30,09,13,5.00
2008,08,30,09,14,5.60
2008,08,30,09,15,4.40
2008,08,30,09,16,3.60
2008,08,30,09,17,3.20
2008,08,30,09,18,2.50
2008,08,30,09,19,4.00
2008,08,30,09,20,4.40
2008,08,30,09,21,2.30
2008,08,30,09,22,4.30
2008,08,30,09,23,4.90
2008,08,30,09,24,5.00
2008,08,30,09,25,2.70
2008,08,30,09,26,2.20
2008,08,30,09,27,2.70
2008,08,30,09,28,4.60
2008,08,30,09,29,3.00
2008,08,30,09,30,2.60
2008,08,30,09,31,1.60
2008,08,30,09,32,1.00
2008,08,30,09,33,1.60
2008,08,30,09,34,2.50
2008,08,30,09,35,0.60
2008,08,30,09,36,2.20
2008,08,30,09,37,1.80
2008,08,30,09,38,3.50
2008,08,30,09,39,2.80
2008,08,30,09,40,0.60
2008,08,30,09,41,0.90
2008,08,30,09,42,3.90
2008,08,30,09,43,1.70
2008,08,30,09,44,3.30
2008,08,30,09,45,1.70
2008,08,30,09,46,2.70
2008,08,30,09,47,3.90
2008,08,30,09,48,3.20
2008,08,30,09,49,2.30
2008,08,30,09,50,3.30
2008,08,30,09,51,3.70
2008,08,30,09,52,4.30
2008,08,30,09,53,6.50
2008,08,30,09,54,5.20
2008,08,30,09,55,6.30
2008,08,30,09,56,5.80
2008,08,30,09,57,3.90
2008,08,30,09,58,2.40
2008,08,30,09,59,3.80
2008,08,30,10,00,3.50
2008,08,30,10,01,3.20
2008,08,30,10,02,3.20
2008,08,30,10,03,4.60
2008,08,30,10,04,4.60
2008,08,30,10,05,3.90
2008,08,30,10,06,3.10
2008,08,30,10,07,3.80
2008,08,30,10,08,4.00
2008,08,30,10,09,4.30
2008,08,30,10,10,4.20
2008,08,30,10,11,4.60
2008,08,30,10,12,3.90
2008,08,30,10,13,3.00
2008,08,30,10,14,3.90
2008,08,30,10,15,1.90
2008,08,30,10,16,2.00
2008,08,30,10,17,2.90
2008,08,30,10,18,2.60
2008,08,30,10,19,2.70
2008,08,30,10,20,4.30
2008,08,30,10,21,5.40
2008,08,30,10,22,7.40
2008,08,30,10,23,7.70
2008,08,30,10,24,6.20
2008,08,30,10,25,6.90
2008,08,30,10,26,4.70
2008,08,30,10,27,6.70
2008,08,30,10,28,5.60
2008,08,30,10,29,2.60
2008,08,30,10,30,2.90
2008,08,30,10,31,3.90
2008,08,30,10,32,1.80
2008,08,30,10,33,3.60
2008,08,30,10,34,5.00
2008,08,30,10,35,3.50
2008,08,30,10,36,2.00
2008,08,30,10,37,1.30
2008,08,30,10,38,4.90
2008,08,30,10,39,4.00
2008,08,30,10,40,8.40
2008,08,30,10,41,9.00
2008,08,30,10,42,9.20
2008,08,30,10,43,9.30
2008,08,30,10,44,9.30
2008,08,30,10,45,9.60
2008,08,30,10,46,9.60
2008,08,30,10,47,7.40
2008,08,30,10,48,7.00
2008,08,30,10,49,7.10
2008,08,30,10,50,8.60
2008,08,30,10,51,9.80
2008,08,30,10,52,7.40
2008,08,30,10,53,3.10
2008,08,30,10,54,6.20
2008,08,30,10,55,1.80
2008,08,30,10,56,6.50
2008,08,30,10,57,7.50
2008,08,30,10,58,6.80
2008,08,30,10,59,5.20
2008,08,30,11,00,6.80
2008,08,30,11,01,7.80
2008,08,30,11,02,6.10
2008,08,30,11,03,6.50
2008,08,30,11,04,7.70
2008,08,30,11,05,7.90
2008,08,30,11,06,8.30
2008,08,30,11,07,9.10
2008,08,30,11,08,8.50
2008,08,30,11,09,8.60
2008,08,30,11,10,9.10
2008,08,30,11,11,5.90
2008,08,30,11,12,9.60
2008,08,30,11,13,7.40
2008,08,30,11,14,8.10
2008,08,30,11,15,8.80
2008,08,30,11,16,6.10
2008,08,30,11,17,9.90
2008,08,30,11,18,6.70
2008,08,30,11,19,8.50
2008,08,30,11,20,7.30
2008,08,30,11,21,6.40
2008,08,30,11,22,8.50
2008,08,30,11,23,4.80
2008,08,30,11,24,5.60
2008,08,30,11,25,6.10
2008,08,30,11,26,5.20
2008,08,30,11,27,7.70
2008,08,30,11,28,8.60
2008,08,30,11,29,5.80
2008,08,30,11,30,7.30
2008,08,30,11,31,4.90
2008,08,30,11,32,5.90
2008,08,30,11,33,6.50
2008,08,30,11,34,8.20
2008,08,30,11,35,9.20
2008,08,30,11,36,10.20
2008,08,30,11,37,7.80
2008,08,30,11,38,12.10
2008,08,30,11,39,10.30
2008,08,30,11,40,8.40
2008,08,30,11,41,7.20
2008,08,30,11,42,8.00
2008,08,30,11,43,7.70
2008,08,30,11,44,5.10
2008,08,30,11,45,6.60
2008,08,30,11,46,8.00
2008,08,30,11,47,8.20
2008,08,30,11,48,9.50
2008,08,30,11,49,6.80
2008,08,30,11,50,9.10
2008,08,30,11,51,11.20
2008,08,30,11,52,7.70
2008,08,30,11,53,8.40
2008,08,30,11,54,8.40
2008,08,30,11,55,9.30
2008,08,30,11,56,8.20
2008,08,30,11,57,5.70
2008,08,30,11,58,7.70
2008,08,30,11,59,9.00
2008,08,30,12,00,9.90
2008,08,30,12,01,10.30
2008,08,30,12,02,7.70
2008,08,30,12,03,4.70
2008,08,30,12,04,3.50
2008,08,30,12,05,6.40
2008,08,30,12,06,7.50
2008,08,30,12,07,5.70
2008,08,30,12,08,9.50
2008,08,30,12,09,10.20
2008,08,30,12,10,6.70
2008,08,30,12,11,7.70
2008,08,30,12,12,7.90
2008,08,30,12,13,8.70
2008,08,30,12,14,7.40
2008,08,30,12,15,8.50
2008,08,30,12,16,7.90
2008,08,30,12,17,9.40
2008,08,30,12,18,8.50
2008,08,30,12,19,9.60
2008,08,30,12,20,8.70
2008,08,30,12,21,8.50
2008,08,30,12,22,9.90
2008,08,30,12,23,5.90
2008,08,30,12,24,7.40
2008,08,30,12,25,7.50
2008,08,30,12,26,8.50
2008,08,30,12,27,9.70
2008,08,30,12,28,9.30
2008,08,30,12,29,8.40
2008,08,30,12,30,4.10
2008,08,30,12,31,8.90
2008,08,30,12,32,8.30
2008,08,30,12,33,8.40
2008,08,30,12,34,7.20
2008,08,30,12,35,7.10
2008,08,30,12,36,6.80
2008,08,30,12,37,8.50
2008,08,30,12,38,5.80
2008,08,30,12,39,6.70
2008,08,30,12,40,7.60
2008,08,30,12,41,6.40
2008,08,30,12,42,4.40
2008,08,30,12,43,8.60
2008,08,30,12,44,7.00
2008,08,30,12,45,8.60
2008,08,30,12,46,10.00
2008,08,30,12,47,8.30
2008,08,30,12,48,8.40
2008,08,30,12,49,10.20
2008,08,30,12,50,8.00
2008,08,30,12,51,6.20
2008,08,30,12,52,11.40
2008,08,30,12,53,7.40
2008,08,30,12,54,10.30
2008,08,30,12,55,7.40
2008,08,30,12,56,12.50
2008,08,30,12,57,10.20
2008,08,30,12,58,7.50
2008,08,30,12,59,6.40
2008,08,30,13,00,7.80
2008,08,30,13,01,7.60
2008,08,30,13,02,12.70
2008,08,30,13,03,9.30
2008,08,30,13,04,9.70
2008,08,30,13,05,4.30
2008,08,30,13,06,7.70
2008,08,30,13,07,5.10
2008,08,30,13,08,3.50
2008,08,30,13,09,4.50
2008,08,30,13,10,2.90
2008,08,30,13,11,6.30
2008,08,30,13,12,8.80
2008,08,30,13,13,7.80
2008,08,30,13,14,10.40
2008,08,30,13,15,11.60
2008,08,30,13,16,8.10
2008,08,30,13,17,5.30
2008,08,30,13,18,6.20
2008,08,30,13,19,8.70
2008,08,30,13,20,5.60
2008,08,30,13,21,2.60
2008,08,30,13,22,4.40
2008,08,30,13,23,2.30
2008,08,30,13,24,1.10
2008,08,30,13,25,9.30
2008,08,30,13,26,4.90
2008,08,30,13,27,4.30
2008,08,30,13,28,8.20
2008,08,30,13,29,7.50
2008,08,30,13,30,6.90
2008,08,30,13,31,6.40
2008,08,30,13,32,4.30
2008,08,30,13,33,6.00
2008,08,30,13,34,8.90
2008,08,30,13,35,8.00
2008,08,30,13,36,8.60
2008,08,30,13,37,12.40
2008,08,30,13,38,8.90
2008,08,30,13,39,7.00
2008,08,30,13,40,7.80
2008,08,30,13,41,4.70
2008,08,30,13,42,6.00
2008,08,30,13,43,9.70
2008,08,30,13,44,6.00
2008,08,30,13,45,3.90
2008,08,30,13,46,7.20
2008,08,30,13,47,6.80
2008,08,30,13,48,8.20
2008,08,30,13,49,8.90
2008,08,30,13,50,5.80
2008,08,30,13,51,11.40
2008,08,30,13,52,11.60
2008,08,30,13,53,10.60
2008,08,30,13,54,7.10
2008,08,30,13,55,1.80
2008,08,30,13,56,5.20
2008,08,30,13,57,8.90
2008,08,30,13,58,6.20
2008,08,30,13,59,6.80
2008,08,30,14,00,6.70
2008,08,30,14,01,9.10
2008,08,30,14,02,6.90
2008,08,30,14,03,10.50
2008,08,30,14,04,8.50
2008,08,30,14,05,7.70
2008,08,30,14,06,6.70
2008,08,30,14,07,8.00
2008,08,30,14,08,10.40
2008,08,30,14,09,5.80
2008,08,30,14,10,8.50
2008,08,30,14,11,9.00
2008,08,30,14,12,8.90
2008,08,30,14,13,6.50
2008,08,30,14,14,11.40
2008,08,30,14,15,6.90
2008,08,30,14,16,9.30
2008,08,30,14,17,6.50
2008,08,30,14,18,1.30
2008,08,30,14,19,5.80
2008,08,30,14,20,1.80
2008,08,30,14,21,5.90
2008,08,30,14,22,8.70
2008,08,30,14,23,8.50
2008,08,30,14,24,4.70
2008,08,30,14,25,10.60
2008,08,30,14,26,8.50
2008,08,30,14,27,9.60
2008,08,30,14,28,6.90
2008,08,30,14,29,4.60
2008,08,30,14,30,9.80
2008,08,30,14,31,6.80
2008,08,30,14,32,8.10
2008,08,30,14,33,7.80
2008,08,30,14,34,5.60
2008,08,30,14,35,8.00
2008,08,30,14,36,4.30
2008,08,30,14,37,3.00
2008,08,30,14,38,4.40
2008,08,30,14,39,9.30
2008,08,30,14,40,9.00
2008,08,30,14,41,7.50
2008,08,30,14,42,4.60
2008,08,30,14,43,9.50
2008,08,30,14,44,4.40
2008,08,30,14,45,7.90
2008,08,30,14,46,3.00
2008,08,30,14,47,4.60
2008,08,30,14,48,6.70
2008,08,30,14,49,5.60
2008,08,30,14,50,3.10
2008,08,30,14,51,5.60
2008,08,30,14,52,5.90
2008,08,30,14,53,5.60
2008,08,30,14,54,8.90
2008,08,30,14,55,3.70
2008,08,30,14,56,2.70
2008,08,30,14,57,3.90
2008,08,30,14,58,9.30
2008,08,30,14,59,7.90
2008,08,30,15,00,7.50
2008,08,30,15,01,6.10
2008,08,30,15,02,6.10
2008,08,30,15,03,6.60
2008,08,30,15,04,6.00
2008,08,30,15,05,4.50
2008,08,30,15,06,7.00
2008,08,30,15,07,9.30
2008,08,30,15,08,9.50
2008,08,30,15,09,7.10
2008,08,30,15,10,5.30
2008,08,30,15,11,6.00
2008,08,30,15,12,6.80
2008,08,30,15,13,6.00
2008,08,30,15,14,5.40
2008,08,30,15,15,6.40
2008,08,30,15,16,6.80
2008,08,30,15,17,5.50
2008,08,30,15,18,4.90
2008,08,30,15,19,7.90
2008,08,30,15,20,2.40
2008,08,30,15,21,6.10
2008,08,30,15,22,9.50
2008,08,30,15,23,9.50
2008,08,30,15,24,6.80
2008,08,30,15,25,3.40
2008,08,30,15,26,5.60
2008,08,30,15,27,3.70
2008,08,30,15,28,2.60
2008,08,30,15,29,4.40
2008,08,30,15,30,3.10
2008,08,30,15,31,2.40
2008,08,30,15,32,5.60
2008,08,30,15,33,6.20
2008,08,30,15,34,6.30
2008,08,30,15,35,4.90
2008,08,30,15,36,5.30
2008,08,30,15,37,5.90
2008,08,30,15,38,6.90
2008,08,30,15,39,3.90
2008,08,30,15,40,6.90
2008,08,30,15,41,6.00
2008,08,30,15,42,5.50
2008,08,30,15,43,10.30
2008,08,30,15,44,9.90
2008,08,30,15,45,9.50
2008,08,30,15,46,9.10
2008,08,30,15,47,6.10
2008,08,30,15,48,7.60
2008,08,30,15,49,3.60
2008,08,30,15,50,2.60
2008,08,30,15,51,5.50
2008,08,30,15,52,7.00
2008,08,30,15,53,6.70
2008,08,30,15,54,5.60
2008,08,30,15,55,6.80
2008,08,30,15,56,5.40
2008,08,30,15,57,4.30
2008,08,30,15,58,4.30
2008,08,30,15,59,2.60
2008,08,30,16,00,3.30
2008,08,30,16,01,6.50
2008,08,30,16,02,6.50
2008,08,30,16,03,6.40
2008,08,30,16,04,5.10
2008,08,30,16,05,5.80
2008,08,30,16,06,5.30
2008,08,30,16,07,4.30
2008,08,30,16,08,6.70
2008,08,30,16,09,8.10
2008,08,30,16,10,2.90
2008,08,30,16,11,4.10
2008,08,30,16,12,3.60
2008,08,30,16,13,5.90
2008,08,30,16,14,2.10
2008,08,30,16,15,3.30
2008,08,30,16,16,10.30
2008,08,30,16,17,5.80
2008,08,30,16,18,4.20
2008,08,30,16,19,6.20
2008,08,30,16,20,6.70
2008,08,30,16,21,10.70
2008,08,30,16,22,6.70
2008,08,30,16,23,6.90
2008,08,30,16,24,8.30
2008,08,30,16,25,5.60
2008,08,30,16,26,10.30
2008,08,30,16,27,12.00
2008,08,30,16,28,8.50
2008,08,30,16,29,9.40
2008,08,30,16,30,9.30
2008,08,30,16,31,10.80
2008,08,30,16,32,5.90
2008,08,30,16,33,3.10
2008,08,30,16,34,6.90
2008,08,30,16,35,8.00
2008,08,30,16,36,9.40
2008,08,30,16,37,7.30
2008,08,30,16,38,8.00
2008,08,30,16,39,6.80
2008,08,30,16,40,12.20
2008,08,30,16,41,11.40
2008,08,30,16,42,7.00
2008,08,30,16,43,7.10
2008,08,30,16,44,8.00
2008,08,30,16,45,4.70
2008,08,30,16,46,5.40
2008,08,30,16,47,7.30
2008,08,30,16,48,11.20
2008,08,30,16,49,9.70
2008,08,30,16,50,9.70
2008,08,30,16,51,10.30
2008,08,30,16,52,9.40
2008,08,30,16,53,8.00
2008,08,30,16,54,6.00
2008,08,30,16,55,5.10
2008,08,30,16,56,1.10
2008,08,30,16,57,8.90
2008,08,30,16,58,11.60
2008,08,30,16,59,6.50
2008,08,30,17,00,8.70
2008,08,30,17,01,6.90
2008,08,30,17,02,4.70
2008,08,30,17,03,8.40
2008,08,30,17,04,6.90
2008,08,30,17,05,5.00
2008,08,30,17,06,6.20
2008,08,30,17,07,8.80
2008,08,30,17,08,7.10
2008,08,30,17,09,3.50
2008,08,30,17,10,2.70
2008,08,30,17,11,2.30
2008,08,30,17,12,1.70
2008,08,30,17,13,2.70
2008,08,30,17,14,1.20
2008,08,30,17,15,1.50
2008,08,30,17,16,2.30
2008,08,30,17,17,1.40
2008,08,30,17,18,2.20
2008,08,30,17,19,0.50
2008,08,30,17,20,2.90
2008,08,30,17,21,2.90
2008,08,30,17,22,6.20
2008,08,30,17,23,7.60
2008,08,30,17,24,2.60
2008,08,30,17,25,4.20
2008,08,30,17,26,4.80
2008,08,30,17,27,5.30
2008,08,30,17,28,2.10
2008,08,30,17,29,5.60
2008,08,30,17,30,3.40
2008,08,30,17,31,3.70
2008,08,30,17,32,7.70
2008,08,30,17,33,4.90
2008,08,30,17,34,3.60
2008,08,30,17,35,4.00
2008,08,30,17,36,4.10
2008,08,30,17,37,6.60
2008,08,30,17,38,5.70
2008,08,30,17,39,8.40
2008,08,30,17,40,4.10
2008,08,30,17,41,5.90
2008,08,30,17,42,9.40
2008,08,30,17,43,9.20
2008,08,30,17,44,9.50
2008,08,30,17,45,9.10
2008,08,30,17,46,7.70
2008,08,30,17,47,10.60
2008,08,30,17,48,16.90
2008,08,30,17,49,12.90
2008,08,30,17,50,15.00
2008,08,30,17,51,10.30
2008,08,30,17,52,13.90
2008,08,30,17,53,18.10
2008,08,30,17,54,12.80
2008,08,30,17,55,9.80
2008,08,30,17,56,10.50
2008,08,30,17,57,11.70
2008,08,30,17,58,15.20
2008,08,30,17,59,9.70
2008,08,30,18,00,5.40
2008,08,30,18,01,5.60
2008,08,30,18,02,5.20